RADUGA 26 [-]

Last updated on Oct. 25, 2020, 5:56 a.m. UTC

1 21016U 90112A   20298.06648297 -.00000215  00000-0  00000-0 0  9995
2 21016  14.5837 353.9889 0007115  51.2410  95.7417  1.00317924109585
UTC
Height (km)
Latitude
Longitude
Inclination
Orbital Period
UTC large
Height (km)
Speed (km/s)
/
Latitude / Longitude
Inclination (degrees)
Orbital Period (minutes)
Azimuth
Elevation
Range (km)
Doppler Factor
iOS Compass Heading
iOS Angle

Next 30 passes for location: Hong Kong

Rise time Rise Azimuth (degrees) Set time Set Azimuth (degrees) Duration Max altitude (degrees)

No matching passes for this satellites